AZU2686 SBPA-SBKP

Flight info

Callsign AZU2686
Flight time 1h 10m
Altitude 37000
Route PENSO UZ132 EDRAT
Aircraft A320/M-SDE3FGHIRWY/LB1

Departure

Time 2026-05-06 00:34
Airport Porto Alegre-Salgado Filho International Airport (SBPA)

Arrival

Time 2026-05-06 01:45
Airport Viracopos International Airport (SBKP)
Time Latitude Longitude Altitude Speed Heading
2026-05-06 00:03 -29.99120 -51.17348 21 ft 0 kts
2026-05-06 00:23 -29.99127 -51.17348 0 ft 3 kts 359°
2026-05-06 00:24 -29.99147 -51.17347 5 ft 3 kts 351°
2026-05-06 00:24 -29.99167 -51.17342 22 ft 3 kts 331°
2026-05-06 00:24 -29.99181 -51.17329 23 ft 3 kts 286°
2026-05-06 00:24 -29.99182 -51.17322 23 ft 0 kts 271°
2026-05-06 00:30 -29.99185 -51.17355 23 ft 9 kts 256°
2026-05-06 00:30 -29.99239 -51.17393 20 ft 9 kts 195°
2026-05-06 00:31 -29.99266 -51.17442 20 ft 7 kts 258°
2026-05-06 00:31 -29.99265 -51.17491 20 ft 6 kts 272°
2026-05-06 00:31 -29.99264 -51.17568 20 ft 16 kts 271°
2026-05-06 00:31 -29.99277 -51.17701 21 ft 10 kts 251°
2026-05-06 00:32 -29.99285 -51.17774 20 ft 8 kts 269°
2026-05-06 00:32 -29.99284 -51.17836 20 ft 8 kts 271°
2026-05-06 00:32 -29.99282 -51.17933 20 ft 13 kts 270°
2026-05-06 00:32 -29.99296 -51.18030 20 ft 12 kts 253°
2026-05-06 00:33 -29.99323 -51.18109 22 ft 11 kts 248°
2026-05-06 00:33 -29.99357 -51.18210 19 ft 15 kts 245°
2026-05-06 00:33 -29.99434 -51.18236 20 ft 12 kts 137°
2026-05-06 00:33 -29.99443 -51.18197 21 ft 0 kts 86°
2026-05-06 00:34 -29.99443 -51.18051 21 ft 54 kts 92°
2026-05-06 00:34 -29.99458 -51.17349 19 ft 118 kts 91°
2026-05-06 00:34 -29.99481 -51.16200 30 ft 166 kts 91°
2026-05-06 00:34 -29.99505 -51.14858 637 ft 164 kts 91°
2026-05-06 00:35 -29.99521 -51.13476 1008 ft 186 kts 91°
2026-05-06 00:35 -29.99550 -51.11897 1314 ft 209 kts 91°
2026-05-06 00:35 -29.99584 -51.10124 1717 ft 234 kts 91°
2026-05-06 00:35 -29.99623 -51.08155 2276 ft 252 kts 91°
2026-05-06 00:36 -29.99614 -51.06102 3122 ft 259 kts 82°
2026-05-06 00:36 -29.98872 -51.04228 4002 ft 263 kts 47°
2026-05-06 00:36 -29.97289 -51.03162 4931 ft 272 kts 17°
2026-05-06 00:36 -29.95394 -51.02797 5775 ft 279 kts 14°
2026-05-06 00:37 -29.93610 -51.02044 6464 ft 279 kts 37°
2026-05-06 00:37 -29.91969 -51.00799 7198 ft 287 kts 37°
2026-05-06 00:37 -29.90254 -50.99561 7913 ft 296 kts 35°
2026-05-06 00:37 -29.88473 -50.98312 8611 ft 304 kts 33°
2026-05-06 00:38 -29.86642 -50.97038 9334 ft 311 kts 32°
2026-05-06 00:38 -29.84776 -50.95737 10075 ft 316 kts 31°
2026-05-06 00:38 -29.82846 -50.94380 10476 ft 336 kts 30°
2026-05-06 00:38 -29.80712 -50.93093 10689 ft 357 kts 20°
2026-05-06 00:39 -29.78289 -50.92254 11073 ft 368 kts
2026-05-06 00:39 -29.75789 -50.91963 11795 ft 365 kts 356°
2026-05-06 00:39 -29.73254 -50.92007 12574 ft 365 kts 354°
2026-05-06 00:39 -29.70705 -50.92059 13279 ft 368 kts 354°
2026-05-06 00:40 -29.68129 -50.92116 13920 ft 373 kts 354°
2026-05-06 00:40 -29.65521 -50.92172 14550 ft 377 kts 354°
2026-05-06 00:40 -29.62881 -50.92227 14924 ft 381 kts 354°
2026-05-06 00:40 -29.60220 -50.92280 15004 ft 382 kts 355°
2026-05-06 00:41 -29.57563 -50.92336 15011 ft 382 kts 354°
2026-05-06 00:41 -29.54936 -50.92394 15009 ft 383 kts 354°
2026-05-06 00:41 -29.52264 -50.92454 15011 ft 385 kts 354°
2026-05-06 00:41 -29.49582 -50.92515 15009 ft 385 kts 354°
2026-05-06 00:42 -29.46901 -50.92572 15010 ft 386 kts 354°
2026-05-06 00:42 -29.44212 -50.92626 15009 ft 386 kts 354°
2026-05-06 00:42 -29.41532 -50.92680 15009 ft 385 kts 354°
2026-05-06 00:42 -29.38852 -50.92737 15010 ft 385 kts 354°
2026-05-06 00:43 -29.36176 -50.92793 15011 ft 385 kts 354°
2026-05-06 00:43 -29.33497 -50.92850 15009 ft 385 kts 354°
2026-05-06 00:43 -29.30814 -50.92910 15006 ft 385 kts 354°
2026-05-06 00:43 -29.28175 -50.92971 15012 ft 384 kts 354°
2026-05-06 00:44 -29.25500 -50.93034 15008 ft 385 kts 354°
2026-05-06 00:44 -29.22823 -50.93094 15010 ft 385 kts 354°
2026-05-06 00:44 -29.20147 -50.93239 15015 ft 383 kts 348°
2026-05-06 00:44 -29.17496 -50.93667 15505 ft 387 kts 347°
2026-05-06 00:45 -29.14819 -50.94095 16085 ft 390 kts 347°
2026-05-06 00:45 -29.12120 -50.94523 16610 ft 394 kts 347°
2026-05-06 00:45 -29.09394 -50.94956 17093 ft 398 kts 347°
2026-05-06 00:45 -29.06671 -50.95388 17548 ft 402 kts 347°
2026-05-06 00:46 -29.03889 -50.95827 18041 ft 406 kts 347°
2026-05-06 00:46 -29.01083 -50.96268 18508 ft 409 kts 348°
2026-05-06 00:46 -28.98252 -50.96713 18986 ft 412 kts 348°
2026-05-06 00:46 -28.95401 -50.97161 19424 ft 415 kts 348°
2026-05-06 00:47 -28.92532 -50.97612 19881 ft 418 kts 348°
2026-05-06 00:47 -28.89641 -50.98068 20303 ft 421 kts 348°
2026-05-06 00:47 -28.86726 -50.98528 20737 ft 424 kts 347°
2026-05-06 00:47 -28.83795 -50.98991 21165 ft 427 kts 347°
2026-05-06 00:48 -28.80819 -50.99281 21622 ft 434 kts 356°
2026-05-06 00:48 -28.77825 -50.98975 22003 ft 443 kts
2026-05-06 00:48 -28.74789 -50.98267 22398 ft 447 kts
2026-05-06 00:48 -28.71727 -50.97547 22743 ft 450 kts
2026-05-06 00:49 -28.68646 -50.96828 23127 ft 453 kts
2026-05-06 00:49 -28.65547 -50.96112 23470 ft 456 kts
2026-05-06 00:49 -28.62425 -50.95397 23803 ft 459 kts
2026-05-06 00:49 -28.59282 -50.94678 24142 ft 462 kts
2026-05-06 00:50 -28.56165 -50.93968 24475 ft 464 kts
2026-05-06 00:50 -28.52987 -50.93245 24791 ft 467 kts
2026-05-06 00:50 -28.49790 -50.92517 25094 ft 470 kts
2026-05-06 00:50 -28.46577 -50.91779 25398 ft 472 kts
2026-05-06 00:51 -28.43349 -50.91038 25702 ft 474 kts
2026-05-06 00:51 -28.40107 -50.90292 25991 ft 477 kts
2026-05-06 00:51 -28.36851 -50.89545 26275 ft 479 kts
2026-05-06 00:51 -28.33572 -50.88797 26554 ft 481 kts
2026-05-06 00:52 -28.30287 -50.88047 26825 ft 483 kts
2026-05-06 00:52 -28.27023 -50.87302 27105 ft 485 kts
2026-05-06 00:52 -28.23710 -50.86546 27384 ft 487 kts
2026-05-06 00:52 -28.20380 -50.85787 27638 ft 489 kts
2026-05-06 00:53 -28.17032 -50.85026 27895 ft 491 kts
2026-05-06 00:53 -28.13679 -50.84260 28139 ft 493 kts
2026-05-06 00:53 -28.10312 -50.83494 28394 ft 494 kts
2026-05-06 00:53 -28.06935 -50.82705 28589 ft 498 kts
2026-05-06 00:54 -28.03628 -50.81479 28818 ft 505 kts 19°
2026-05-06 00:54 -28.00461 -50.79710 29023 ft 509 kts 25°
2026-05-06 00:54 -27.97365 -50.77852 29205 ft 512 kts 24°
2026-05-06 00:54 -27.94215 -50.75963 29411 ft 514 kts 25°
2026-05-06 00:55 -27.91050 -50.74070 29632 ft 515 kts 25°
2026-05-06 00:55 -27.87883 -50.72173 29853 ft 516 kts 24°
2026-05-06 00:55 -27.84714 -50.70277 30138 ft 516 kts 24°
2026-05-06 00:55 -27.81540 -50.68380 30434 ft 515 kts 24°
2026-05-06 00:56 -27.78377 -50.66490 30713 ft 515 kts 24°
2026-05-06 00:56 -27.75212 -50.64600 31003 ft 514 kts 25°
2026-05-06 00:56 -27.73120 -50.63354 31259 ft 512 kts 25°
2026-05-06 00:56 -27.68961 -50.60876 31719 ft 510 kts 25°
2026-05-06 00:57 -27.65823 -50.59007 31980 ft 510 kts 25°
2026-05-06 00:57 -27.62685 -50.57140 32223 ft 510 kts 24°
2026-05-06 00:57 -27.59539 -50.55273 32478 ft 511 kts 24°
2026-05-06 00:57 -27.56400 -50.53407 32724 ft 510 kts 24°
2026-05-06 00:58 -27.54322 -50.52174 32908 ft 510 kts 24°
2026-05-06 00:58 -27.51181 -50.50311 33178 ft 510 kts 24°
2026-05-06 00:58 -27.48037 -50.48451 33451 ft 510 kts 24°
2026-05-06 00:58 -27.43883 -50.45997 33807 ft 509 kts 24°
2026-05-06 00:59 -27.40749 -50.44133 34057 ft 510 kts 24°
2026-05-06 00:59 -27.37619 -50.42255 34298 ft 510 kts 25°
2026-05-06 00:59 -27.35504 -50.40983 34471 ft 510 kts 25°
2026-05-06 00:59 -27.32421 -50.39123 34696 ft 510 kts 25°
2026-05-06 01:00 -27.29295 -50.37238 34898 ft 511 kts 25°
2026-05-06 01:00 -27.26162 -50.35351 35129 ft 510 kts 25°
2026-05-06 01:00 -27.23029 -50.33473 35367 ft 510 kts 24°
2026-05-06 01:00 -27.19895 -50.31603 35559 ft 510 kts 24°
2026-05-06 01:01 -27.15737 -50.29142 35800 ft 510 kts 24°
2026-05-06 01:01 -27.13618 -50.27895 35951 ft 509 kts 24°
2026-05-06 01:01 -27.10480 -50.26052 36205 ft 508 kts 24°
2026-05-06 01:01 -27.07347 -50.24212 36416 ft 508 kts 24°
2026-05-06 01:02 -27.04261 -50.22395 36610 ft 508 kts 24°
2026-05-06 01:02 -27.01136 -50.20553 36768 ft 508 kts 24°
2026-05-06 01:02 -26.98009 -50.18710 36917 ft 508 kts 24°
2026-05-06 01:02 -26.94878 -50.16869 37099 ft 508 kts 24°
2026-05-06 01:03 -26.91742 -50.15028 37179 ft 509 kts 24°
2026-05-06 01:03 -26.85452 -50.11336 37195 ft 511 kts 24°
2026-05-06 01:04 -26.79183 -50.07666 37193 ft 512 kts 24°
2026-05-06 01:04 -26.72871 -50.03976 37195 ft 511 kts 24°
2026-05-06 01:05 -26.66565 -50.00290 37194 ft 511 kts 24°
2026-05-06 01:05 -26.60263 -49.96600 37194 ft 512 kts 24°
2026-05-06 01:06 -26.53998 -49.92932 37198 ft 512 kts 24°
2026-05-06 01:06 -26.47683 -49.89259 37182 ft 512 kts 24°
2026-05-06 01:07 -26.41365 -49.85587 37170 ft 512 kts 24°
2026-05-06 01:07 -26.35037 -49.81906 37171 ft 513 kts 24°
2026-05-06 01:08 -26.28748 -49.78253 37166 ft 513 kts 24°
2026-05-06 01:08 -26.22415 -49.74568 37170 ft 513 kts 24°
2026-05-06 01:09 -26.16081 -49.70892 37168 ft 513 kts 24°
2026-05-06 01:09 -26.09738 -49.67226 37178 ft 513 kts 24°
2026-05-06 01:10 -26.03398 -49.63568 37170 ft 513 kts 24°
2026-05-06 01:10 -25.97104 -49.59925 37177 ft 513 kts 24°
2026-05-06 01:11 -25.90765 -49.56267 37178 ft 513 kts 24°
2026-05-06 01:11 -25.84426 -49.52615 37170 ft 513 kts 24°
2026-05-06 01:12 -25.78082 -49.48962 37177 ft 513 kts 24°
2026-05-06 01:12 -25.71785 -49.45341 37168 ft 513 kts 24°
2026-05-06 01:13 -25.65442 -49.41695 37169 ft 514 kts 24°
2026-05-06 01:13 -25.59094 -49.38056 37173 ft 514 kts 24°
2026-05-06 01:14 -25.49609 -49.32633 37174 ft 514 kts 24°
2026-05-06 01:14 -25.43260 -49.29011 37178 ft 514 kts 24°
2026-05-06 01:15 -25.36909 -49.25393 37172 ft 514 kts 24°
2026-05-06 01:15 -25.30553 -49.21767 37176 ft 514 kts 24°
2026-05-06 01:16 -25.24204 -49.18144 37180 ft 514 kts 24°
2026-05-06 01:16 -25.21072 -49.16360 37304 ft 514 kts 24°
2026-05-06 01:16 -25.17882 -49.14545 37305 ft 517 kts 24°
2026-05-06 01:17 -25.11481 -49.10909 37302 ft 518 kts 24°
2026-05-06 01:17 -25.05075 -49.07249 37301 ft 519 kts 24°
2026-05-06 01:18 -24.98667 -49.03593 37308 ft 518 kts 24°
2026-05-06 01:18 -24.92301 -48.99981 37311 ft 518 kts 24°
2026-05-06 01:19 -24.85890 -48.96350 37309 ft 518 kts 24°
2026-05-06 01:19 -24.79486 -48.92722 37311 ft 517 kts 24°
2026-05-06 01:20 -24.73086 -48.89106 37318 ft 517 kts 24°
2026-05-06 01:20 -24.66728 -48.85533 37323 ft 516 kts 24°
2026-05-06 01:21 -24.60344 -48.81948 37324 ft 515 kts 24°
2026-05-06 01:21 -24.53962 -48.78363 37307 ft 515 kts 24°
2026-05-06 01:22 -24.47752 -48.74410 37294 ft 518 kts 30°
2026-05-06 01:22 -24.41690 -48.70230 37292 ft 518 kts 29°
2026-05-06 01:23 -24.35577 -48.66029 37292 ft 519 kts 29°
2026-05-06 01:23 -24.29454 -48.61827 37296 ft 517 kts 29°
2026-05-06 01:24 -24.26421 -48.59743 36812 ft 515 kts 29°
2026-05-06 01:24 -24.23356 -48.57638 35749 ft 524 kts 30°
2026-05-06 01:24 -24.20279 -48.55526 35169 ft 520 kts 30°
2026-05-06 01:24 -24.17228 -48.53431 34655 ft 515 kts 29°
2026-05-06 01:25 -24.14251 -48.51386 34170 ft 510 kts 30°
2026-05-06 01:25 -24.11267 -48.49335 33656 ft 505 kts 29°
2026-05-06 01:25 -24.08305 -48.47302 33129 ft 500 kts 29°
2026-05-06 01:25 -24.05374 -48.45295 32600 ft 495 kts 30°
2026-05-06 01:26 -24.02470 -48.43309 32114 ft 490 kts 30°
2026-05-06 01:26 -23.99592 -48.41345 31619 ft 485 kts 30°
2026-05-06 01:26 -23.96750 -48.39408 31160 ft 479 kts 30°
2026-05-06 01:26 -23.93971 -48.37515 30689 ft 474 kts 30°
2026-05-06 01:27 -23.91188 -48.35612 30199 ft 469 kts 30°
2026-05-06 01:27 -23.88432 -48.33732 29704 ft 465 kts 30°
2026-05-06 01:27 -23.85697 -48.31870 29185 ft 461 kts 30°
2026-05-06 01:27 -23.82991 -48.30014 28671 ft 458 kts 31°
2026-05-06 01:28 -23.80341 -48.28103 28139 ft 455 kts 33°
2026-05-06 01:28 -23.77747 -48.26143 27612 ft 452 kts 34°
2026-05-06 01:28 -23.75194 -48.24165 27085 ft 449 kts 34°
2026-05-06 01:28 -23.72695 -48.22214 26574 ft 446 kts 35°
2026-05-06 01:29 -23.70175 -48.20262 26032 ft 443 kts 34°
2026-05-06 01:29 -23.67661 -48.18338 25518 ft 440 kts 34°
2026-05-06 01:29 -23.65156 -48.16441 25003 ft 437 kts 34°
2026-05-06 01:29 -23.62664 -48.14565 24500 ft 434 kts 34°
2026-05-06 01:30 -23.60187 -48.12708 23989 ft 431 kts 34°
2026-05-06 01:30 -23.57728 -48.10866 23495 ft 428 kts 34°
2026-05-06 01:30 -23.55287 -48.09030 23031 ft 424 kts 34°
2026-05-06 01:30 -23.52869 -48.07209 22579 ft 421 kts 34°
2026-05-06 01:31 -23.50469 -48.05404 22144 ft 417 kts 34°
2026-05-06 01:31 -23.48120 -48.03638 21713 ft 414 kts 34°
2026-05-06 01:31 -23.45759 -48.01864 21292 ft 411 kts 34°
2026-05-06 01:31 -23.43423 -48.00106 20862 ft 407 kts 34°
2026-05-06 01:32 -23.41102 -47.98359 20450 ft 403 kts 34°
2026-05-06 01:32 -23.38803 -47.96631 20036 ft 400 kts 34°
2026-05-06 01:32 -23.36525 -47.94920 19620 ft 397 kts 34°
2026-05-06 01:32 -23.34263 -47.93222 19209 ft 393 kts 34°
2026-05-06 01:33 -23.32014 -47.91536 18790 ft 391 kts 34°
2026-05-06 01:33 -23.29785 -47.89865 18376 ft 387 kts 34°
2026-05-06 01:33 -23.27606 -47.88231 17974 ft 384 kts 34°
2026-05-06 01:33 -23.25415 -47.86588 17567 ft 381 kts 34°
2026-05-06 01:34 -23.23241 -47.84958 17178 ft 378 kts 34°
2026-05-06 01:34 -23.21248 -47.83120 16788 ft 375 kts 48°
2026-05-06 01:34 -23.19745 -47.80831 16435 ft 370 kts 62°
2026-05-06 01:34 -23.18542 -47.78370 16008 ft 368 kts 63°
2026-05-06 01:35 -23.17345 -47.75916 15628 ft 366 kts 62°
2026-05-06 01:35 -23.16157 -47.73480 15012 ft 362 kts 62°
2026-05-06 01:35 -23.14988 -47.71090 14386 ft 355 kts 62°
2026-05-06 01:35 -23.13853 -47.68774 13766 ft 349 kts 62°
2026-05-06 01:36 -23.12722 -47.66468 13143 ft 343 kts 61°
2026-05-06 01:36 -23.11612 -47.64204 12516 ft 337 kts 61°
2026-05-06 01:36 -23.10520 -47.61976 11897 ft 331 kts 62°
2026-05-06 01:36 -23.09452 -47.59794 11266 ft 325 kts 62°
2026-05-06 01:37 -23.08401 -47.57654 10722 ft 316 kts 62°
2026-05-06 01:37 -23.07387 -47.55592 10374 ft 304 kts 62°
2026-05-06 01:37 -23.06399 -47.53585 10023 ft 299 kts 62°
2026-05-06 01:37 -23.05423 -47.51597 9675 ft 298 kts 62°
2026-05-06 01:38 -23.04465 -47.49646 9326 ft 294 kts 62°
2026-05-06 01:38 -23.03525 -47.47730 8975 ft 282 kts 62°
2026-05-06 01:38 -23.02622 -47.45893 8621 ft 270 kts 62°
2026-05-06 01:38 -23.01756 -47.44130 8274 ft 259 kts 63°
2026-05-06 01:39 -23.00923 -47.42437 7920 ft 250 kts 63°
2026-05-06 01:39 -23.00120 -47.40803 7570 ft 243 kts 62°
2026-05-06 01:39 -22.99345 -47.39228 7229 ft 240 kts 62°
2026-05-06 01:39 -22.98554 -47.37628 6875 ft 238 kts 62°
2026-05-06 01:40 -22.97736 -47.36072 6550 ft 238 kts 54°
2026-05-06 01:40 -22.96584 -47.34794 6288 ft 236 kts 37°
2026-05-06 01:40 -22.95286 -47.33727 6064 ft 232 kts 38°
2026-05-06 01:40 -22.94013 -47.32670 5837 ft 229 kts 38°
2026-05-06 01:41 -22.92759 -47.31623 5617 ft 226 kts 38°
2026-05-06 01:41 -22.91525 -47.30589 5384 ft 223 kts 39°
2026-05-06 01:41 -22.90590 -47.29298 5147 ft 220 kts 72°
2026-05-06 01:41 -22.90630 -47.27682 4921 ft 218 kts 113°
2026-05-06 01:42 -22.91461 -47.26343 4709 ft 217 kts 127°
2026-05-06 01:42 -22.92389 -47.25074 4511 ft 211 kts 127°
2026-05-06 01:42 -22.93284 -47.23848 4240 ft 205 kts 127°
2026-05-06 01:42 -22.94148 -47.22649 3970 ft 198 kts 126°
2026-05-06 01:43 -22.94970 -47.21504 3718 ft 186 kts 126°
2026-05-06 01:43 -22.95740 -47.20430 3481 ft 174 kts 126°
2026-05-06 01:43 -22.96463 -47.19423 3249 ft 164 kts 126°
2026-05-06 01:43 -22.97138 -47.18482 3039 ft 157 kts 126°
2026-05-06 01:44 -22.97804 -47.17552 2832 ft 154 kts 126°
2026-05-06 01:44 -22.98457 -47.16640 2632 ft 152 kts 126°
2026-05-06 01:44 -22.99100 -47.15737 2393 ft 150 kts 126°
2026-05-06 01:44 -22.99737 -47.14844 2237 ft 149 kts 128°
2026-05-06 01:45 -23.00361 -47.13970 2167 ft 136 kts 128°
2026-05-06 01:45 -23.00837 -47.13308 2159 ft 87 kts 128°
2026-05-06 01:45 -23.01103 -47.12941 2164 ft 34 kts 131°
2026-05-06 01:45 -23.01251 -47.12839 2167 ft 21 kts 154°
2026-05-06 01:46 -23.01355 -47.12801 2161 ft 11 kts 181°
2026-05-06 01:46 -23.01389 -47.12856 2162 ft 9 kts 283°
2026-05-06 01:46 -23.01359 -47.12906 2167 ft 7 kts 307°
2026-05-06 01:46 -23.01331 -47.12944 2164 ft 6 kts 309°
2026-05-06 01:47 -23.01302 -47.12984 2165 ft 11 kts 307°
2026-05-06 01:47 -23.01226 -47.13091 2169 ft 24 kts 308°
2026-05-06 01:47 -23.01145 -47.13203 2163 ft 15 kts 308°
2026-05-06 01:47 -23.01083 -47.13290 2164 ft 12 kts 308°
2026-05-06 01:48 -23.01035 -47.13357 2162 ft 10 kts 307°
2026-05-06 01:48 -23.00995 -47.13414 2164 ft 9 kts 307°
2026-05-06 01:48 -23.00955 -47.13469 2164 ft 12 kts 308°
2026-05-06 01:48 -23.00916 -47.13522 2163 ft 16 kts 308°
2026-05-06 01:49 -23.00802 -47.13683 2164 ft 21 kts 307°
2026-05-06 01:49 -23.00709 -47.13812 2162 ft 21 kts 308°
2026-05-06 01:49 -23.00627 -47.13925 2166 ft 19 kts 308°
2026-05-06 01:49 -23.00547 -47.14036 2160 ft 18 kts 308°
2026-05-06 01:50 -23.00474 -47.14138 2164 ft 17 kts 307°
2026-05-06 01:50 -23.00400 -47.14241 2167 ft 18 kts 308°
2026-05-06 01:50 -23.00328 -47.14342 2166 ft 14 kts 308°
2026-05-06 01:50 -23.00270 -47.14424 2159 ft 14 kts 308°
2026-05-06 01:51 -23.00221 -47.14491 2167 ft 10 kts 308°
2026-05-06 01:51 -23.00199 -47.14563 2166 ft 11 kts 249°
2026-05-06 01:51 -23.00257 -47.14623 2164 ft 12 kts 219°
2026-05-06 01:51 -23.00324 -47.14679 2160 ft 12 kts 218°
2026-05-06 01:52 -23.00387 -47.14733 2164 ft 9 kts 218°
2026-05-06 01:52 -23.00389 -47.14796 2163 ft 10 kts 304°
2026-05-06 01:52 -23.00355 -47.14846 2162 ft 8 kts 308°
2026-05-06 01:52 -23.00327 -47.14899 2166 ft 7 kts 268°
2026-05-06 01:53 -23.00348 -47.14923 2162 ft 1 kts 218°
2026-05-06 01:53 -23.00352 -47.14927 2165 ft 1 kts 219°
2026-05-06 01:53 -23.00354 -47.14928 2166 ft 0 kts 219°